Weather History for Everett, WA

Change the Weather History Date:

Monday, January 28, 2013

  Actual Average Record
Temperature  
Mean Temperature 39 °F -  
Max Temperature 41 °F 45 °F 57 °F (1952)
Min Temperature 37 °F 32 °F 4 °F (1972)
Degree Days  
Heating Degree Days 26    
Moisture  
Dew Point 37 °F    
Average Humidity 90    
Maximum Humidity 93    
Minimum Humidity 81    
Precipitation  
Precipitation 0.83 in - - ()
Sea Level Pressure  
Sea Level Pressure 30.03 in    
Wind  
Wind Speed 7 mph (SSW)    
Max Wind Speed 10 mph    
Max Gust Speed 25 mph    
Visibility 7 miles    
Events Rain    
Averages and records for this station are not official NWS values.
T = Trace of Precipitation, MM = Missing Value Source: NWS Daily Summary

Daily Weather History Graph

Daily Weather History Graph

Search for Another Location

Airport:

Trip Planner

Search our weather history database for the weather conditions in past years. The results will help you decide how hot, cold, wet, or windy it might be!

Date:

Astronomy

Jan. 28, 2013 Rise Set
Actual Time 7:41 AM PST 5:03 PM PST
Civil Twilight 7:07 AM PST 5:37 PM PST
Nautical Twilight 6:30 AM PST 6:14 PM PST
Astronomical Twilight 5:53 AM PST 6:51 PM PST
Moon 7:17 PM PST (1/28) 7:58 AM PST (1/28)
Length of Visible Light 10h 29m
Length of Day
9h 22m
Full, 97% of the Moon is Illuminated
Jan 28
Full
Feb 3
Last Quarter
Feb 9
New
Feb 17
First Quarter
Feb 25
Full

Hourly Weather History & Observations

Time (PST) Temp. Windchill Dew Point Humidity Pressure Visibility Wind Dir Wind Speed Gust Speed Precip Events Conditions
12:09 AM 39.2 °F 34.2 °F 37.4 °F 93% 29.99 in 9.0 mi South 6.9 mph - N/A   Overcast
12:32 AM 39.2 °F 34.2 °F 37.4 °F 93% 29.99 in 9.0 mi SSE 6.9 mph - N/A   Overcast
12:53 AM 39.0 °F 34.8 °F 37.0 °F 93% 30.00 in 8.0 mi South 5.8 mph - N/A   Overcast
1:53 AM 39.0 °F 34.8 °F 37.0 °F 93% 30.01 in 10.0 mi Variable 5.8 mph - N/A   Overcast
2:04 AM 39.2 °F 33.6 °F 35.6 °F 87% 30.00 in 6.0 mi South 8.1 mph - N/A   Overcast
2:26 AM 37.4 °F 30.8 °F 35.6 °F 93% 30.00 in 6.0 mi South 9.2 mph - N/A   Scattered Clouds
2:53 AM 37.9 °F 32.7 °F 36.0 °F 93% 30.02 in 7.0 mi South 6.9 mph - N/A   Scattered Clouds
3:53 AM 37.9 °F 33.5 °F 36.0 °F 93% 30.03 in 8.0 mi South 5.8 mph - N/A   Scattered Clouds
4:00 AM 37.4 °F 32.8 °F 35.6 °F 93% 30.01 in 7.0 mi South 5.8 mph - N/A   Mostly Cloudy
4:53 AM 37.9 °F 35.5 °F 36.0 °F 93% 30.04 in 8.0 mi South 3.5 mph - N/A   Overcast
5:34 AM 39.2 °F 35.9 °F 35.6 °F 87% 30.02 in 10.0 mi WSW 4.6 mph - N/A   Overcast
5:53 AM 39.0 °F 34.8 °F 35.1 °F 86% 30.04 in 10.0 mi South 5.8 mph - N/A   Overcast
6:49 AM 39.2 °F 33.6 °F 33.8 °F 81% 30.03 in 10.0 mi SSW 8.1 mph 25.3 mph N/A   Overcast
6:51 AM 39.2 °F 35.0 °F 35.6 °F 87% 30.04 in 10.0 mi SSW 5.8 mph 25.3 mph N/A   Overcast
6:53 AM 39.0 °F 32.8 °F 35.1 °F 86% 30.05 in 10.0 mi SSW 9.2 mph 25.3 mph N/A   Overcast
7:53 AM 39.9 °F 36.7 °F 35.1 °F 83% 30.06 in 10.0 mi SW 4.6 mph - 0.00 in Rain Light Rain
8:15 AM 39.2 °F 34.2 °F 35.6 °F 87% 30.04 in 10.0 mi SW 6.9 mph - 0.00 in Rain Light Rain
8:30 AM 39.2 °F 33.0 °F 37.4 °F 93% 30.05 in 10.0 mi SSW 9.2 mph - 0.00 in Rain Light Rain
9:07 AM 39.2 °F 34.2 °F 35.6 °F 87% 30.04 in 7.0 mi SSW 6.9 mph - 0.01 in Rain Light Rain
9:18 AM 39.2 °F 33.6 °F 35.6 °F 87% 30.04 in 6.0 mi SW 8.1 mph - 0.01 in Rain Light Rain
9:53 AM 39.0 °F 34.0 °F 37.0 °F 93% 30.06 in 6.0 mi SW 6.9 mph - 0.03 in Rain Light Rain
10:00 AM 39.2 °F 34.2 °F 35.6 °F 87% 30.05 in 5.0 mi SW 6.9 mph - 0.01 in Rain Light Rain
10:20 AM 39.2 °F 32.5 °F 35.6 °F 87% 30.05 in 4.0 mi SSW 10.4 mph - 0.03 in Rain Light Rain
10:53 AM 39.0 °F 34.0 °F 35.1 °F 86% 30.06 in 4.0 mi South 6.9 mph - 0.08 in Rain Light Rain
11:00 AM 39.2 °F 34.2 °F 35.6 °F 87% 30.06 in 5.0 mi SSW 6.9 mph - 0.01 in Rain Light Rain
11:18 AM 39.2 °F 33.6 °F 35.6 °F 87% 30.05 in 3.0 mi SSW 8.1 mph - 0.04 in Rain Light Rain
11:44 AM 39.2 °F 32.5 °F 35.6 °F 87% 30.05 in 4.0 mi SSW 10.4 mph - 0.07 in Rain Light Rain
11:53 AM 39.0 °F 34.8 °F 36.0 °F 89% 30.07 in 4.0 mi SSW 5.8 mph - 0.08 in Rain Light Rain
12:53 PM 39.0 °F 33.4 °F 36.0 °F 89% 30.05 in 4.0 mi SSW 8.1 mph - 0.08 in Rain Light Rain
1:53 PM 39.0 °F 33.4 °F 36.0 °F 89% 30.04 in 4.0 mi SSW 8.1 mph - 0.09 in Rain Light Rain
2:53 PM 39.0 °F 34.8 °F 37.0 °F 93% 30.03 in 5.0 mi SSW 5.8 mph - 0.06 in Rain Light Rain
3:00 PM 39.2 °F 34.2 °F 37.4 °F 93% 30.01 in 6.0 mi SSW 6.9 mph - 0.01 in Rain Light Rain
3:35 PM 39.2 °F 35.9 °F 37.4 °F 93% 30.01 in 3.0 mi SSW 4.6 mph - 0.06 in Rain Light Rain
3:53 PM 39.0 °F 32.8 °F 37.0 °F 93% 30.02 in 3.0 mi South 9.2 mph - 0.08 in Rain Light Rain
4:53 PM 39.9 °F 35.8 °F 37.0 °F 89% 30.02 in 3.0 mi SSW 5.8 mph - 0.06 in Rain Light Rain
5:53 PM 41.0 °F 36.4 °F 37.0 °F 86% 30.03 in 4.0 mi SSW 6.9 mph - 0.04 in Rain Light Rain
6:00 PM 39.2 °F 34.2 °F 37.4 °F 93% 30.02 in 7.0 mi SSW 6.9 mph - 0.01 in Rain Light Rain
6:53 PM 39.9 °F 36.7 °F 37.9 °F 93% 30.03 in 10.0 mi South 4.6 mph - 0.04 in Rain Light Rain
7:53 PM 41.0 °F - 39.0 °F 93% 30.03 in 6.0 mi Calm Calm - 0.01 in Rain Light Rain
8:06 PM 41.0 °F - 39.2 °F 93% 30.02 in 5.0 mi Calm Calm - 0.01 in Rain Light Rain
8:17 PM 41.0 °F 35.2 °F 39.2 °F 93% 30.02 in 5.0 mi South 9.2 mph - 0.02 in Rain Light Rain
8:53 PM 41.0 °F 38.0 °F 39.0 °F 93% 30.05 in 6.0 mi South 4.6 mph - 0.04 in Rain Light Rain
9:00 PM 41.0 °F 38.0 °F 39.2 °F 93% 30.03 in 7.0 mi SSE 4.6 mph - 0.01 in Rain Light Rain
9:53 PM 41.0 °F 36.4 °F 37.9 °F 89% 30.06 in 7.0 mi South 6.9 mph - 0.09 in Rain Light Rain
10:53 PM 41.0 °F 35.8 °F 37.9 °F 89% 30.07 in 10.0 mi South 8.1 mph - 0.04 in Rain Light Rain
11:53 PM 41.0 °F 36.4 °F 37.9 °F 89% 30.09 in 10.0 mi Variable 6.9 mph - 0.01 in   Overcast